Satellite: NOAA-14 Catalog number: 23455 Epoch time: 14120.44927139 Element set: 736 Inclination: 098.7783 deg RA of node: 204.7310 deg Eccentricity: 0.0009974 Arg of perigee: 169.9291 deg Mean anomaly: 249.4681 deg Mean motion: 14.13968741 rev/day Decay rate: 4.3e-07 rev/day^2 Epoch rev: 99720 Checksum: 335
Satellite: NOAA-15 Catalog number: 25338 Epoch time: 14120.47254576 Element set: 167 Inclination: 098.7508 deg RA of node: 114.4299 deg Eccentricity: 0.0009383 Arg of perigee: 287.4274 deg Mean anomaly: 235.1548 deg Mean motion: 14.25407876 rev/day Decay rate: 1.61e-06 rev/day^2 Epoch rev: 83004 Checksum: 318
Satellite: RESURS Catalog number: 25394 Epoch time: 14120.80762931 Element set: 644 Inclination: 098.4084 deg RA of node: 087.1854 deg Eccentricity: 0.0002297 Arg of perigee: 070.2276 deg Mean anomaly: 347.8566 deg Mean motion: 14.24391841 rev/day Decay rate: 3.1e-07 rev/day^2 Epoch rev: 82157 Checksum: 304
Satellite: FENGYUN1 Catalog number: 25730 Epoch time: 14121.50589617 Element set: 136 Inclination: 098.9096 deg RA of node: 082.8970 deg Eccentricity: 0.0024392 Arg of perigee: 240.8274 deg Mean anomaly: 254.4148 deg Mean motion: 14.11834300 rev/day Decay rate: 6.76e-06 rev/day^2 Epoch rev: 77093 Checksum: 307
Satellite: OKEAN-0 Catalog number: 25860 Epoch time: 14121.78114132 Element set: 237 Inclination: 098.0383 deg RA of node: 085.9356 deg Eccentricity: 0.0001514 Arg of perigee: 126.0440 deg Mean anomaly: 297.0228 deg Mean motion: 14.75218148 rev/day Decay rate: 6.04e-06 rev/day^2 Epoch rev: 79531 Checksum: 280
Satellite: NOAA-16 Catalog number: 26536 Epoch time: 14120.36755824 Element set: 658 Inclination: 098.9939 deg RA of node: 180.5129 deg Eccentricity: 0.0009619 Arg of perigee: 324.2365 deg Mean anomaly: 092.5290 deg Mean motion: 14.13031470 rev/day Decay rate: 2.05e-06 rev/day^2 Epoch rev: 70136 Checksum: 304
Satellite: NOAA-17 Catalog number: 27453 Epoch time: 14120.46802560 Element set: 563 Inclination: 098.3134 deg RA of node: 122.6952 deg Eccentricity: 0.0010559 Arg of perigee: 318.3246 deg Mean anomaly: 195.7533 deg Mean motion: 14.24741584 rev/day Decay rate: 1.21e-06 rev/day^2 Epoch rev: 61589 Checksum: 300
Satellite: NOAA-18 Catalog number: 28654 Epoch time: 14120.49264419 Element set: 51 Inclination: 099.1446 deg RA of node: 099.0451 deg Eccentricity: 0.0014899 Arg of perigee: 042.0322 deg Mean anomaly: 065.9229 deg Mean motion: 14.12004272 rev/day Decay rate: 2.81e-06 rev/day^2 Epoch rev: 46083 Checksum: 290
Satellite: NOAA-19 Catalog number: 33591 Epoch time: 14120.44645720 Element set: 215 Inclination: 098.9415 deg RA of node: 065.6358 deg Eccentricity: 0.0012968 Arg of perigee: 252.6095 deg Mean anomaly: 245.4893 deg Mean motion: 14.11703630 rev/day Decay rate: 7.2e-07 rev/day^2 Epoch rev: 26925 Checksum: 308
/EX SB KEPS @ AMSAT $ORB14121.M Orbital Elements 14121.MISC
HR AMSAT ORBITAL ELEMENTS FOR MANNED AND MISCELLANEOUS SATELLITES FROM WA5QGD FORT WORTH,TX May 1, 2014 BID: ORB14121.M TO ALL RADIO AMATEURS BT
Satellite: HUBBLE Catalog number: 20580 Epoch time: 14121.77728882 Element set: 4 Inclination: 028.4707 deg RA of node: 342.1930 deg Eccentricity: 0.0003151 Arg of perigee: 141.7891 deg Mean anomaly: 264.6119 deg Mean motion: 15.05282717 rev/day Decay rate: 2.478e-05 rev/day^2 Epoch rev: 11771 Checksum: 281
Satellite: ISS Catalog number: 25544 Epoch time: 14121.89616942 Element set: 196 Inclination: 051.6492 deg RA of node: 329.0092 deg Eccentricity: 0.0002215 Arg of perigee: 283.9451 deg Mean anomaly: 207.7715 deg Mean motion: 15.49767528 rev/day Decay rate: -6.132e-05 rev/day^2 Epoch rev: 88414 Checksum: 313
Satellite: CO-58 Catalog number: 28895 Epoch time: 14121.11875662 Element set: 755 Inclination: 097.8392 deg RA of node: 325.4237 deg Eccentricity: 0.0018291 Arg of perigee: 155.8236 deg Mean anomaly: 204.3829 deg Mean motion: 14.61821451 rev/day Decay rate: 7.04e-06 rev/day^2 Epoch rev: 45337 Checksum: 326
Satellite: FALCON Catalog number: 30776 Epoch time: 14121.23075479 Element set: 855 Inclination: 035.4300 deg RA of node: 044.3539 deg Eccentricity: 0.0003007 Arg of perigee: 259.3974 deg Mean anomaly: 227.6945 deg Mean motion: 15.15701819 rev/day Decay rate: 8.203e-05 rev/day^2 Epoch rev: 39360 Checksum: 294
Satellite: MAST Catalog number: 31126 Epoch time: 14120.96793922 Element set: 32 Inclination: 097.9110 deg RA of node: 104.3355 deg Eccentricity: 0.0093472 Arg of perigee: 141.0710 deg Mean anomaly: 285.4290 deg Mean motion: 14.55210971 rev/day Decay rate: 6.21e-06 rev/day^2 Epoch rev: 37352 Checksum: 263
Satellite: CAPE1 Catalog number: 31130 Epoch time: 14121.84171623 Element set: 39 Inclination: 097.9316 deg RA of node: 101.7610 deg Eccentricity: 0.0100059 Arg of perigee: 155.8734 deg Mean anomaly: 204.7198 deg Mean motion: 14.54354850 rev/day Decay rate: 7.78e-06 rev/day^2 Epoch rev: 37307 Checksum: 282
Satellite: COMPASS Catalog number: 32787 Epoch time: 14121.76070639 Element set: 917 Inclination: 097.7055 deg RA of node: 176.6154 deg Eccentricity: 0.0012836 Arg of perigee: 340.4029 deg Mean anomaly: 019.6693 deg Mean motion: 14.87675766 rev/day Decay rate: 2.645e-05 rev/day^2 Epoch rev: 32528 Checksum: 332
Satellite: AAUSAT2 Catalog number: 32788 Epoch time: 14121.78665953 Element set: 904 Inclination: 097.7062 deg RA of node: 177.5721 deg Eccentricity: 0.0012381 Arg of perigee: 338.6776 deg Mean anomaly: 021.3924 deg Mean motion: 14.88360524 rev/day Decay rate: 2.782e-05 rev/day^2 Epoch rev: 32534 Checksum: 323
Satellite: DO-64 Catalog number: 32789 Epoch time: 14121.17187351 Element set: 942 Inclination: 097.7239 deg RA of node: 183.0330 deg Eccentricity: 0.0010795 Arg of perigee: 325.3659 deg Mean anomaly: 091.1419 deg Mean motion: 14.92880476 rev/day Decay rate: 6.802e-05 rev/day^2 Epoch rev: 32548 Checksum: 327
Satellite: CO-66 Catalog number: 32791 Epoch time: 14121.20483591 Element set: 900 Inclination: 097.7051 deg RA of node: 174.9368 deg Eccentricity: 0.0013600 Arg of perigee: 345.2337 deg Mean anomaly: 014.8480 deg Mean motion: 14.86380311 rev/day Decay rate: 2.802e-05 rev/day^2 Epoch rev: 32507 Checksum: 286
Satellite: RS-30 Catalog number: 32953 Epoch time: 14121.70931219 Element set: 878 Inclination: 082.5037 deg RA of node: 230.1034 deg Eccentricity: 0.0017990 Arg of perigee: 255.7909 deg Mean anomaly: 104.1173 deg Mean motion: 12.43046210 rev/day Decay rate: 1.0e-07 rev/day^2 Epoch rev: 26948 Checksum: 271
Satellite: METEOR-M Catalog number: 35865 Epoch time: 14121.71267337 Element set: 491 Inclination: 098.5544 deg RA of node: 170.5221 deg Eccentricity: 0.0001724 Arg of perigee: 218.3119 deg Mean anomaly: 141.7924 deg Mean motion: 14.21919949 rev/day Decay rate: 1.2e-07 rev/day^2 Epoch rev: 23973 Checksum: 293
Satellite: RS-38 Catalog number: 35869 Epoch time: 14121.63978572 Element set: 416 Inclination: 098.5475 deg RA of node: 170.2687 deg Eccentricity: 0.0004085 Arg of perigee: 216.0946 deg Mean anomaly: 259.7080 deg Mean motion: 14.22204416 rev/day Decay rate: 3.8e-07 rev/day^2 Epoch rev: 23975 Checksum: 328
Satellite: JUGNU Catalog number: 37839 Epoch time: 14121.48194425 Element set: 609 Inclination: 019.9597 deg RA of node: 178.0001 deg Eccentricity: 0.0018839 Arg of perigee: 189.2808 deg Mean anomaly: 290.1484 deg Mean motion: 14.12298943 rev/day Decay rate: 4.02e-06 rev/day^2 Epoch rev: 13194 Checksum: 317
Satellite: SRMSAT Catalog number: 37841 Epoch time: 14121.48399919 Element set: 613 Inclination: 019.9703 deg RA of node: 196.3738 deg Eccentricity: 0.0011881 Arg of perigee: 130.1694 deg Mean anomaly: 348.9401 deg Mean motion: 14.10343087 rev/day Decay rate: 3.79e-06 rev/day^2 Epoch rev: 13175 Checksum: 308
Satellite: RAX-2 Catalog number: 37853 Epoch time: 14121.86177262 Element set: 792 Inclination: 101.7171 deg RA of node: 129.4354 deg Eccentricity: 0.0218400 Arg of perigee: 190.5717 deg Mean anomaly: 291.5446 deg Mean motion: 14.88840307 rev/day Decay rate: 5.024e-05 rev/day^2 Epoch rev: 13576 Checksum: 301
Satellite: AUBIESAT Catalog number: 37854 Epoch time: 14121.61980978 Element set: 773 Inclination: 101.7204 deg RA of node: 130.7774 deg Eccentricity: 0.0216608 Arg of perigee: 188.7487 deg Mean anomaly: 291.8775 deg Mean motion: 14.90097764 rev/day Decay rate: 4.919e-05 rev/day^2 Epoch rev: 13577 Checksum: 351
Satellite: HRBE Catalog number: 37855 Epoch time: 14121.58705938 Element set: 781 Inclination: 101.7209 deg RA of node: 130.1621 deg Eccentricity: 0.0218657 Arg of perigee: 189.8979 deg Mean anomaly: 287.6237 deg Mean motion: 14.89440711 rev/day Decay rate: 5.855e-05 rev/day^2 Epoch rev: 13574 Checksum: 337
Satellite: RS-39 Catalog number: 38051 Epoch time: 14121.81240313 Element set: 498 Inclination: 051.6279 deg RA of node: 095.3743 deg Eccentricity: 0.0008495 Arg of perigee: 030.9779 deg Mean anomaly: 040.3802 deg Mean motion: 15.55001388 rev/day Decay rate: 7.3213e-04 rev/day^2 Epoch rev: 12688 Checksum: 305
Satellite: E-STAR Catalog number: 38079 Epoch time: 14121.44458916 Element set: 839 Inclination: 069.4549 deg RA of node: 114.0604 deg Eccentricity: 0.0407910 Arg of perigee: 062.2367 deg Mean anomaly: 092.8593 deg Mean motion: 14.98137125 rev/day Decay rate: 1.14352e-03 rev/day^2 Epoch rev: 11643 Checksum: 312
Satellite: GOLIAT Catalog number: 38085 Epoch time: 14121.49706991 Element set: 4 Inclination: 069.4586 deg RA of node: 119.9610 deg Eccentricity: 0.0427981 Arg of perigee: 065.2466 deg Mean anomaly: 299.2589 deg Mean motion: 14.93110528 rev/day Decay rate: 9.7148e-04 rev/day^2 Epoch rev: 11628 Checksum: 339
